{"data":{"norad_id":68907,"intl_designator":"2026-097N","name":"STARLINK-37551","alt_names":[],"object_type":"PAYLOAD","status":"ACTIVE","operator":null,"country":"US","launch_date":"2026-04-30","launch_site_code":"AFWTR","launch_vehicle":null,"mission":null,"orbit_class":"UNKNOWN","rcs_meters":null,"size_class":null,"mass_kg":null,"dimensions":null,"purposes":["comms"],"wikipedia_slug":null,"has_3d_model":false,"image_url":null,"decayed_at":null,"tle_current":{"epoch":"2026-05-25T02:00:31.857984Z","epoch_age_seconds":70988,"freshness":"FRESH","line1":"1 68907U 26097N   26145.08370206  .00037864  00000+0  69299-3 0  9993","line2":"2 68907  97.2839 340.7491 0001862  85.0202 275.1261 15.49251097  3934","mean_motion":15.49251097,"eccentricity":0.0001862,"inclination_deg":97.2839,"raan_deg":340.7491,"arg_perigee_deg":85.0202,"mean_anomaly_deg":275.1261,"bstar":0.00069299,"rev_number":393,"period_min":92.948134927156,"perigee_km":417.6500249446,"apogee_km":420.1812473463,"semimajor_km":6797.0526361455,"source":"CELESTRAK","updated_at":"2026-05-25T13:38:22.068826Z"}}}